Location: Vihti�l�
(61.3833°N, 23.0667°E)
Time: 03:46:49
(UTC+00:00)

ATLAS CENTAUR R/B - Pass Details

Date: 29 November 2020
Orbit: 477 x 668 km, 64.7° (Epoch: 12 January)

Event Time Altitude Azimuth Distance (km) Brightness Sun altitude
Exits shadow 02:56:21 13° 145° (SE) 1,531 3.9 -28.3°
Drops below altitude 10° 02:56:49 10° 143° (SE) 1,716 4.2 -28.2°
Sets 02:59:04 0° 139° (SE) 2,625 5.2 -28.0°
